DateTimeUTC,F1_A11,F1_S11,BsB_S11,BsG_S11,BsR_S11,BbsB_S11,BbsG_S11,BbsR_S11,BaB_A11,BaG_A11,BaR_A11,Tu_S11,T_S11,Uu_S11,U_S11,P_S11,T1_A11
2021-07-03T18:00:00Z,00000200,20000000,,,,,,,0000.03,-000.23,-000.16,19.4,25.7,10.6,07.2,0672.3,31.2
2021-07-03T18:01:00Z,00000200,20000000,,,,,,,-000.06,0000.42,0000.04,19.4,25.7,10.6,07.2,0672.3,31.2
2021-07-03T18:02:00Z,00000200,20000000,,,,,,,-000.10,-000.82,0000.04,19.4,25.7,10.6,07.2,0672.3,31.2
2021-07-03T18:03:00Z,00000200,60000000,,,,,,,0000.22,0000.62,-000.16,19.4,25.7,10.6,07.2,0672.3,31.2
2021-07-03T18:04:00Z,00000200,40000000,0000.59,0000.72,0000.08,0000.33,0000.08,-000.45,-000.61,-000.49,-000.36,19.4,25.5,10.4,07.2,0673.1,31.2
2021-07-03T18:05:00Z,00000200,00000000,0000.55,0000.52,0000.16,0000.14,0000.10,-000.10,0000.19,-000.25,0000.26,19.4,25.5,09.9,06.9,0673.1,31.2
2021-07-03T18:06:00Z,00000200,00000000,0000.38,0000.62,0000.41,0000.35,-000.13,0000.13,-000.03,0000.28,0000.04,19.4,25.5,10.0,06.9,0673.1,31.2
2021-07-03T18:07:00Z,00000200,00000000,0000.55,0000.59,-000.12,0000.11,0000.16,-000.14,0000.03,-000.28,0000.06,19.4,25.5,09.9,06.8,0673.1,31.2
2021-07-03T18:08:00Z,00000200,00000000,0000.42,0000.38,0000.06,0000.51,-000.15,-000.05,-000.02,0000.28,-000.13,19.4,25.5,09.9,06.8,0673.2,31.1
2021-07-03T18:09:00Z,00000200,00000000,0000.01,0000.27,0000.31,0000.55,0000.08,-000.15,0000.62,0000.33,0000.37,19.4,25.5,09.9,06.9,0673.3,31.2
2021-07-03T18:10:00Z,00000200,00000000,0000.08,0000.61,0000.38,-000.11,0000.12,-000.05,0000.03,0000.15,0000.04,19.4,25.5,10.0,06.9,0673.2,31.1
2021-07-03T18:11:00Z,00000200,00000000,0000.87,0000.26,0000.06,0000.42,0000.11,-000.06,-000.31,-000.31,-000.23,19.4,25.5,10.1,07.0,0673.1,31.1
2021-07-03T18:12:00Z,00000200,00000000,0000.74,0000.47,-000.10,0001.00,0000.17,-000.28,0000.28,0000.35,0000.49,19.4,25.5,09.9,06.8,0673.3,31.1
2021-07-03T18:13:00Z,00000200,00000000,0000.64,0000.68,0000.15,0000.15,0000.11,-000.13,0000.23,0000.21,-000.10,19.4,25.4,10.1,07.0,0673.3,31.1
2021-07-03T18:14:00Z,00000200,00000000,0000.66,0000.45,-000.02,0000.20,0000.33,0000.07,0000.07,0000.08,0000.10,19.4,25.4,10.2,07.0,0673.3,31.1
2021-07-03T18:15:00Z,00000200,00000000,0000.44,0000.47,0000.63,0000.19,0000.15,0000.08,-000.00,-000.03,0000.14,19.4,25.4,10.1,07.0,0673.2,31.1
2021-07-03T18:16:00Z,00000200,00000000,0000.62,0000.19,0000.40,0000.10,0000.17,-000.01,0000.48,0000.38,0000.28,19.3,25.4,10.1,07.0,0673.3,31.1
2021-07-03T18:17:00Z,00000200,00000000,0000.58,0000.44,0000.40,0000.04,0000.12,0000.39,-000.09,0000.23,-000.20,19.3,25.4,10.4,07.2,0673.4,31.1
2021-07-03T18:18:00Z,00000200,00000000,0000.19,0000.37,-000.15,-000.13,0000.14,-000.20,0000.20,-000.04,0000.37,19.3,25.4,10.4,07.2,0673.4,31.1
2021-07-03T18:19:00Z,00000200,00000000,0000.74,0000.50,0000.36,0000.19,0000.03,-000.08,-000.02,0000.30,-000.08,19.3,25.4,10.6,07.3,0673.5,31.1
2021-07-03T18:20:00Z,00000200,00000000,0000.26,0000.40,-000.02,0000.21,-000.01,-000.15,0000.44,-000.14,0000.22,19.3,25.4,10.5,07.2,0673.3,31.1
2021-07-03T18:21:00Z,00000200,00000000,0000.62,0000.88,0000.37,0000.09,0000.23,-000.16,-000.03,0000.15,0000.31,19.3,25.4,10.6,07.3,0673.3,31.1
2021-07-03T18:22:00Z,00000200,00000000,0000.58,0000.57,0000.06,0000.26,-000.22,0000.21,0000.01,-000.01,-000.09,19.3,25.4,10.5,07.3,0673.3,31.1
2021-07-03T18:23:00Z,00000200,00000000,0000.05,0000.35,0000.70,0000.11,0000.04,0000.11,0000.06,0000.30,-000.09,19.3,25.4,10.5,07.2,0673.4,31.1
2021-07-03T18:24:00Z,00000200,00000000,0000.44,0000.67,0000.03,-000.14,-000.01,-000.19,0000.18,-000.00,0000.18,19.3,25.4,10.6,07.3,0673.5,31.1
2021-07-03T18:25:00Z,00000200,00000000,0000.92,0000.54,0000.41,0000.20,-000.01,0000.19,0000.08,-000.04,-000.06,19.3,25.3,10.6,07.3,0673.4,31.1
2021-07-03T18:26:00Z,00000200,00000000,0000.96,0000.56,0000.01,0000.89,-000.14,-000.30,0000.06,-000.12,0000.15,19.2,25.3,10.4,07.2,0673.4,31.1
2021-07-03T18:27:00Z,00000200,00000000,0000.54,0000.55,0000.23,-000.22,0000.10,-000.19,0000.05,0000.62,0000.28,19.2,25.3,10.5,07.3,0673.4,31.1
2021-07-03T18:28:00Z,00000200,00000000,0000.65,0000.56,0000.29,-000.03,0000.25,-000.29,0000.02,-000.08,-000.07,19.2,25.3,10.5,07.2,0673.4,31.1
2021-07-03T18:29:00Z,00000200,00000000,0000.28,0000.76,0000.35,-000.03,-000.13,0000.13,0000.11,0000.02,-000.15,19.2,25.3,10.5,07.3,0673.4,31.1
2021-07-03T18:30:00Z,00000200,00000000,0000.80,0000.36,0000.33,0000.54,-000.18,-000.18,0000.01,0000.11,-000.01,19.2,25.3,10.3,07.1,0673.2,31.1
2021-07-03T18:31:00Z,00000200,00000000,0000.73,0000.39,0000.23,-000.02,-000.08,0000.12,0000.14,0000.06,0000.33,19.2,25.3,10.2,07.0,0673.3,31.1
2021-07-03T18:32:00Z,00000200,00000000,0000.28,0000.61,0000.02,0000.37,0000.12,0000.05,0000.18,-000.32,-000.00,19.2,25.3,10.2,07.1,0673.4,31.1
2021-07-03T18:33:00Z,00000200,00000000,0000.31,0000.22,0000.53,0000.80,-000.08,-000.00,-000.23,0000.19,0000.10,19.2,25.3,10.2,07.0,0673.3,31.1
2021-07-03T18:34:00Z,00000200,00000000,0000.49,0000.60,0000.16,0000.55,-000.10,-000.01,0000.36,0000.07,-000.10,19.2,25.3,10.2,07.1,0673.4,31.1
2021-07-03T18:35:00Z,00000200,00000000,0000.43,0000.62,0000.10,0000.27,0000.16,-000.14,-000.01,0000.34,0000.34,19.1,25.2,10.3,07.1,0673.5,31.1
2021-07-03T18:36:00Z,00000200,00000000,0000.23,0000.65,0000.13,0000.04,-000.03,-000.08,0000.23,-000.15,0000.11,19.1,25.2,10.3,07.1,0673.4,31.1
2021-07-03T18:37:00Z,00000200,00000000,0000.29,0000.75,0000.20,0000.08,0000.08,-000.21,0000.05,0000.35,-000.07,19.1,25.3,10.4,07.2,0673.4,31.1
2021-07-03T18:38:00Z,00000200,00000000,0000.54,0000.87,0000.31,0000.48,-000.19,0000.15,0000.05,-000.31,0000.58,19.2,25.3,10.4,07.1,0673.4,31.1
2021-07-03T18:39:00Z,00000200,00000000,0000.21,0000.74,0000.14,0000.65,0000.06,0000.04,0000.14,0000.55,-000.65,19.2,25.3,10.4,07.2,0673.4,31.2
2021-07-03T18:40:00Z,00000200,00000000,0000.71,0000.62,0000.34,0000.03,0000.09,0000.19,-000.08,-000.15,0000.21,19.3,25.4,10.4,07.1,0673.4,31.2
2021-07-03T18:41:00Z,00000200,00000000,0000.05,0000.49,0000.32,0000.20,0000.34,0000.17,0000.23,0000.33,0000.31,19.3,25.4,10.3,07.1,0673.4,31.2
2021-07-03T18:42:00Z,00000200,00000000,0000.69,0000.59,0000.22,0000.27,0000.26,0000.05,0000.17,-000.16,-000.14,19.3,25.4,10.4,07.2,0673.4,31.2
2021-07-03T18:43:00Z,00000200,00000000,0000.91,0000.20,0000.33,0000.77,-000.00,-000.08,-000.05,-000.17,0000.27,19.3,25.4,10.2,07.0,0673.3,31.1
2021-07-03T18:44:00Z,00000200,00000000,0000.06,0000.60,0000.04,0000.14,0000.14,0000.01,0000.14,0000.08,0000.31,19.3,25.4,10.2,07.0,0673.4,31.1
2021-07-03T18:45:00Z,00000200,00000000,0000.47,0000.83,0000.23,0000.06,0000.09,0000.04,0000.26,0000.74,-000.09,19.3,25.3,10.3,07.1,0673.4,31.1
2021-07-03T18:46:00Z,00000200,00000000,0001.04,0000.63,0000.29,0000.25,0000.14,0000.23,0000.22,0000.14,0000.06,19.3,25.3,10.4,07.2,0673.4,31.1
2021-07-03T18:47:00Z,00000200,00000000,0000.43,0000.69,0000.38,0000.72,-000.04,-000.02,0000.04,-000.06,0000.19,19.3,25.3,10.5,07.2,0673.5,31.1
2021-07-03T18:48:00Z,00000200,00000000,0000.58,0000.68,0000.30,0000.57,0000.02,0000.00,0000.02,0000.03,0000.17,19.2,25.3,10.4,07.2,0673.4,31.1
2021-07-03T18:49:00Z,00000200,00000000,0000.40,0000.25,0000.22,0000.34,-000.09,0000.19,0000.13,-000.14,-000.17,19.2,25.3,10.4,07.2,0673.4,31.1
2021-07-03T18:50:00Z,00000200,00000000,0000.35,0000.23,0000.18,0000.07,-000.17,0000.05,0000.52,0000.76,0000.53,19.2,25.3,10.4,07.2,0673.4,31.1
2021-07-03T18:51:00Z,00000200,00000000,0000.27,0000.53,0000.48,0000.16,-000.03,-000.03,-000.22,-000.35,-000.47,19.2,25.3,10.5,07.2,0673.4,31.1
2021-07-03T18:52:00Z,00000200,00000000,0000.61,0000.35,0000.36,-000.12,0000.16,-000.27,0000.04,0000.23,0000.32,19.2,25.3,10.5,07.2,0673.4,31.1
2021-07-03T18:53:00Z,00000200,00000000,0001.00,0000.53,0000.48,0000.47,0000.50,0000.15,0000.34,0000.25,-000.15,19.2,25.3,10.5,07.3,0673.5,31.1
2021-07-03T18:54:00Z,00000200,00000000,-000.06,0000.79,0000.23,-000.20,0000.10,0000.12,0000.06,0000.03,0000.25,19.2,25.3,10.6,07.3,0673.4,31.1
2021-07-03T18:55:00Z,00000200,00000000,0000.90,0000.52,0000.21,0000.15,0000.16,0000.13,-000.15,-000.00,-000.15,19.1,25.3,10.5,07.2,0673.4,31.1
2021-07-03T18:56:00Z,00000200,00000000,0000.65,0000.64,0000.27,0000.40,0000.25,-000.32,0000.13,-000.17,0000.25,19.2,25.3,10.3,07.1,0673.3,31.1
2021-07-03T18:57:00Z,00000200,40000000,,,,,,,0000.17,0000.40,0000.11,19.2,25.3,09.9,06.8,0673.5,31.1
2021-07-03T18:58:00Z,00000200,60000000,,,,,,,-000.29,-000.37,0000.05,18.9,25.4,10.4,07.0,0672.6,31.1
2021-07-03T18:59:00Z,00000200,20000000,,,,,,,0000.13,0000.15,0000.05,18.9,25.5,10.5,07.0,0672.5,31.1
